Tracking 21473 objects as of 20-Sep-2020
HD Live streaming from Space Station
objects crossing your sky now

HINCUBE

Track HINCUBE now!
10-day predictions
HINCUBE is classified as:


NORAD ID: 39445
Int'l Code: 2013-066AF
Perigee: 590.2 km
Apogee: 670.0 km
Inclination: 97.6 °
Period: 97.2 minutes
Semi major axis: 7001 km
RCS: Unknown
Launch date: November 21, 2013
Source: Norway (NOR)
Launch site: Orenburg, Russia (OREN)

Uplink (MHz):
Downlink (MHz): 437.305
Beacon (MHz):
Mode:
Call sign:
Status: Inactive

aabbcc
Your satellite tracking list
Your tracking list is empty




NASA's NSSDC Master Catalog

Two Line Element Set (TLE):
1 39445U 13066AF  20263.99082363  .00000173  00000-0  27702-4 0  9997
2 39445  97.5656 258.9262 0056985 322.5349  37.1898 14.82022796367508
Source of the keplerian elements: AFSPC